Regional Weather Roundup
Issued by NWS

Home | Current Version | Previous Version | Text Only | Print | Product List | Glossary Off
Versions: 1 2 3 4 5 6 7 8 9 10 11 12 13 14 15 16 17 18 19 20 21 22 23 24 25 26 27 28 29 30 31 32 33 34 35 36 37 38 39 40 41 42 43 44 45 46 47 48 49 50

000
ASUS43 KMKX 290611
RWRWI

WISCONSIN REGIONAL WEATHER ROUNDUP
NATIONAL WEATHER SERVICE MILWAUKEE/SULLIVAN WI
100 AM CDT SUN MAY 29 2016

NOTE: "FAIR" INDICATES FEW OR NO CLOUDS BELOW 12,000 FEET WITH NO
SIGNIFICANT WEATHER AND/OR OBSTRUCTIONS TO VISIBILITY.

WIZ001-002-006>008-014>016-023>028-290700-
NORTHWEST WISCONSIN

CITY           SKY/WX    TMP DP  RH WIND       PRES   REMARKS
SUPERIOR ARPT  FOG       51  51 100 CALM      29.81F VSB 1/4
6HR MIN TEMP:  50; 6HR MAX TEMP:  51; 6HR PCP:  0.01;

ASHLAND        CLOUDY    52  50  93 CALM      29.80S
6HR MIN TEMP:  51; 6HR MAX TEMP:  58; 6HR PCP:  0.08;

HAYWARD        FOG       60  59  96 CALM      29.80S VSB 1/2
6HR MIN TEMP:  60; 6HR MAX TEMP:  66; 6HR PCP:  0.06;

SIREN          CLOUDY    60  59  97 CALM      29.82S
6HR MIN TEMP:  59; 6HR MAX TEMP:  63;

CUMBERLAND     CLOUDY    61  59  94 W3        29.82S FOG
RICE LAKE      CLOUDY    62  60  94 CALM      29.83S
6HR MIN TEMP:  61; 6HR MAX TEMP:  62;

CHETEK         CLOUDY    61  61 100 CALM      29.82S FOG
6HR MIN TEMP:  60; 6HR MAX TEMP:  63; 6HR PCP:  0.02;

LADYSMITH      CLOUDY    62  61  96 S6        29.83S
6HR MIN TEMP:  61; 6HR MAX TEMP:  73; 6HR PCP:  0.05;

EAU CLAIRE     PTCLDY    59  58  96 S7        29.81F
6HR MIN TEMP:  59; 6HR MAX TEMP:  65; 6HR PCP:  0.04;

MENOMONIE      CLOUDY    62  62  99 SW3       29.83R
6HR MIN TEMP:  61; 6HR MAX TEMP:  67; 6HR PCP:  0.04;

NEW RICHMOND   CLOUDY    61  61 100 W5        29.83S
6HR MIN TEMP:  60; 6HR MAX TEMP:  66;

OSCEOLA        CLOUDY    62  62 100 W5        29.85R
6HR MIN TEMP:  62; 6HR MAX TEMP:  64;

$$

WIZ003>005-009-010-017-018-290700-
NORTH CENTRAL WISCONSIN

CITY           SKY/WX    TMP DP  RH WIND       PRES   REMARKS
MANITOWISH WTR NOT AVBL
ARBOR VITAE    MOCLDY    62  60  94 E5        29.82F
6HR MIN TEMP:  62; 6HR MAX TEMP:  69; 6HR PCP:  0.01;

WOODRUFF       MOCLDY    62  60  94 E5        29.82F
6HR MIN TEMP:  62; 6HR MAX TEMP:  69; 6HR PCP:  0.01;

RHINELANDER    CLOUDY    64  62  93 SW3       29.83F
6HR MIN TEMP:  63; 6HR MAX TEMP:  74; 6HR PCP:  0.10;

EAGLE RIVER      N/A     63  63  99 CALM      29.83S
LAND O LAKES   CLOUDY    61  61  98 CALM      29.84F
6HR MIN TEMP:  61; 6HR MAX TEMP:  67; 6HR PCP:  0.09;

PHILLIPS       CLOUDY    60  60 100 SE3       29.80F
6HR MIN TEMP:  59; 6HR MAX TEMP:  71; 6HR PCP:  0.22;

TOMAHAWK       CLOUDY    61  59  94 CALM      29.83S
6HR MIN TEMP:  61; 6HR MAX TEMP:  73;

MEDFORD        RAIN      61  61 100 SW5       29.83S
6HR MIN TEMP:  61; 6HR MAX TEMP:  73; 6HR PCP:  0.39;

MERRILL        CLOUDY    64  63  97 S5        29.84S
$$

WIZ029-030-035-036-043>047-290700-
CENTRAL WISCONSIN

CITY           SKY/WX    TMP DP  RH WIND       PRES   REMARKS
WAUSAU         CLOUDY    66  61  84 S9        29.83R
6HR MIN TEMP:  66; 6HR MAX TEMP:  76; 6HR PCP: TRACE;

MOSINEE        CLOUDY    63  61  94 S14       29.86R
MARSHFIELD     CLOUDY    63  60  90 SW8       29.84R
6HR MIN TEMP:  63; 6HR MAX TEMP:  75; 6HR PCP: TRACE;

STEVENS POINT  CLOUDY    63  60  90 S12       29.86S
6HR MIN TEMP:  63; 6HR MAX TEMP:  74;

WAUPACA        CLOUDY    66  65  97 S7        29.87S
6HR MIN TEMP:  65; 6HR MAX TEMP:  78;

WAUTOMA        MOCLDY    65  63  93 S3        29.88R
6HR MIN TEMP:  64; 6HR MAX TEMP:  76; 6HR PCP:  0.21;

WISC RAPIDS    CLOUDY    65  60  84 S6        29.87S
6HR MIN TEMP:  65; 6HR MAX TEMP:  72; 6HR PCP:  0.03;

CAMP DOUGLAS   CLOUDY    64  64 100 S8        29.85S
6HR MIN TEMP:  64; 6HR MAX TEMP:  69;

$$

WIZ011>013-019>022-031-037>040-048>050-290700-
NORTHEAST WISCONSIN

CITY           SKY/WX    TMP DP  RH WIND       PRES   REMARKS
ANTIGO         CLOUDY    62  62  99 S12       29.86R
6HR MIN TEMP:  62; 6HR MAX TEMP:  71; 6HR PCP:  0.16;

SHAWANO        CLOUDY    65  62  88 S3        29.86S
6HR MIN TEMP:  65; 6HR MAX TEMP:  82; 6HR PCP:  0.09;

OCONTO         CLOUDY    64  64 100 S5        29.86R
6HR MIN TEMP:  61; 6HR MAX TEMP:  73; 6HR PCP:  0.01;

STURGEON BAY   NOT AVBL
GREEN BAY      CLOUDY    65  61  87 S6        29.87R
6HR MIN TEMP:  64; 6HR MAX TEMP:  80;

MANITOWOC      CLOUDY    63  60  90 SW10      29.89F
6HR MIN TEMP:  62; 6HR MAX TEMP:  70; 6HR PCP:  0.27;

APPLETON       CLOUDY    64  63  94 S10       29.86F
CLINTONVILLE   CLOUDY    63  61  94 S8        29.86S
OSHKOSH        CLOUDY    64  61  90 S10       29.88S
6HR MIN TEMP:  63; 6HR MAX TEMP:  77; 6HR PCP:  0.43;

$$

WIZ032>034-041-042-053>061-290700-
SOUTHWEST WISCONSIN

CITY           SKY/WX    TMP DP  RH WIND       PRES   REMARKS
LA CROSSE      PTCLDY    63  62  97 S3        29.83S
6HR MIN TEMP:  63; 6HR MAX TEMP:  73; 6HR PCP:  0.04;

SPARTA         PTCLDY    64  62  92 S6        29.86S
6HR MIN TEMP:  64; 6HR MAX TEMP:  69;

VIROQUA        PTCLDY    64  61  91 S8        29.88S
6HR MIN TEMP:  64; 6HR MAX TEMP:  69;

BOSCOBEL       MOCLDY    65  61  87 W5        29.88R
6HR MIN TEMP:  64; 6HR MAX TEMP:  72; 6HR PCP: TRACE;

PRAIRIE DU CHI CLOUDY    64  60  87 CALM      29.88R
6HR MIN TEMP:  64; 6HR MAX TEMP:  72; 6HR PCP:  0.06;

PLATTEVILLE    CLOUDY    65  62  87 S13G20    29.92S
$$

WIZ056-057-062-063-064-067-068-290700-
SOUTH CENTRAL WISCONSIN

CITY           SKY/WX    TMP DP  RH WIND       PRES   REMARKS
REEDSBURG      CLOUDY    64  63  95 S8        29.88F
6HR MIN TEMP:  64; 6HR MAX TEMP:  69;

BARABOO/DELLS  CLOUDY    64  62  91 S7        29.89S
6HR MIN TEMP:  64; 6HR MAX TEMP:  68;

LONE ROCK      CLOUDY    65  62  90 CALM      29.89F
6HR MIN TEMP:  64; 6HR MAX TEMP:  70; 6HR PCP:  0.03;

MINERAL POINT  MOCLDY    64  61  88 S6        29.92S
MADISON        CLOUDY    67  63  87 S6        29.90S
6HR MIN TEMP:  64; 6HR MAX TEMP:  68; 6HR PCP:  0.09;

MIDDLETON      CLOUDY    67  63  88 SW5       29.91F
6HR MIN TEMP:  66; 6HR MAX TEMP:  68;

WATERTOWN      CLOUDY    65  65 100 S7        29.90F
6HR MIN TEMP:  64; 6HR MAX TEMP:  79; 6HR PCP:  0.17;

MONROE         CLOUDY    66  61  82 SW10      29.93S
JANESVILLE     CLOUDY    68  64  88 SW9G17    29.92S
$$

WIZ051-052-058>065-066-070>072-290700-
SOUTHEAST WISCONSIN

CITY           SKY/WX    TMP DP  RH WIND       PRES   REMARKS
MILWAUKEE      CLOUDY    65  62  90 S12       29.93F
6HR MIN TEMP:  65; 6HR MAX TEMP:  76; 6HR PCP:  0.27;

WAUKESHA       CLOUDY    63  61  94 S7        29.93F
MILWAUKEE/TIMM MOCLDY    64  61  88 S7        29.92F
RACINE         LGT RAIN  63  61  93 S3        29.95F
6HR MIN TEMP:  63; 6HR MAX TEMP:  74; 6HR PCP:  0.16;

BURLINGTON     CLOUDY    63  62  98 CALM      29.94F
6HR MIN TEMP:  63; 6HR MAX TEMP:  81; 6HR PCP:  0.84;

KENOSHA        CLOUDY    65  62  90 S6        29.94S
6HR MIN TEMP:  64; 6HR MAX TEMP:  80; 6HR PCP:  0.18;

FOND DU LAC    CLOUDY    65  62  90 S7        29.89F
6HR MIN TEMP:  62; 6HR MAX TEMP:  68; 6HR PCP:  0.86;

SHEBOYGAN      LGT RAIN  63  61  93 S7        29.90F
6HR MIN TEMP:  62; 6HR MAX TEMP:  72; 6HR PCP:  0.39;

WEST BEND      MOCLDY    63  63 100 S5        29.90F
JUNEAU         CLOUDY    64  62  93 S9        29.91F
6HR MIN TEMP:  62; 6HR MAX TEMP:  77; 6HR PCP:  0.33;

$$

LSZ147-162-290700-
LAKE SUPERIOR

STATION/POSITION TIME  TEMP    WIND        PRES    WAVE
                       AIR SEA DIR/SP/G            HT/PER
                 (UTC) (F)     (DEG/KT/KT) (MB)    (FT/S)
W MID LAKE BUOY  0550   40 38  350/  4/  4 1009.3F   1/ 4
DEVILS ISLAND    0600   45     290/  2/  3 1009.7R
PORT WING        0400   44      CALM  /  2 1009.5S
SAXON HARBOR     0540   49      CALM  /  4 1008.1F
$$

LMZ867-665-643>646-290700-
LAKE MICHIGAN

STATION/POSITION TIME  TEMP    WIND        PRES    WAVE
                       AIR SEA DIR/SP/G            HT/PER
                 (UTC) (F)     (DEG/KT/KT) (MB)    (FT/S)
CHAMBERS ISLAND  0540   63     160/  5/  9 1010.8F
N MID LAKE BUOY  0550   51 46  170/ 10/ 12 1010.8F   3/ 5
NORTHPORT PIER   0520   61     140/  6/ 22 1010.8F
SISTER BAY       0535   64     190/ 1C1F1C2F2C3F3C4F4C5F5C6F6C7F7C8M1C9M2Ca!



USA.gov is the U.S. government's official web portal to all federal, state and local government web resources and services.